Location: Buckeye Ditch
(40.9104°N, 122.9517°W)
Time: 13:32:50
(UTC+00:00)

Courier 1B - All Passes

Search period start: 18 May 2025 00:00
Search period end: 28 May 2025 00:00
Orbit: 962 x 1208 km, 28.3° (Epoch: 17 May)

Date Brightness Start Highest point End Pass type
(mag) Time Alt. Az. Time Alt. Az. Time Alt. Az.
18 May - 00:30:42 10° SW 00:33:56 14° SSW 00:37:05 10° S daylight
18 May - 17:56:12 10° SSW 18:00:38 16° SSE 18:04:58 10° ESE daylight
18 May - 19:47:46 10° SW 19:53:54 27° S 19:59:45 10° ESE daylight
18 May - 21:41:13 10° WSW 21:47:15 28° S 21:52:59 10° SE daylight
18 May - 23:35:58 10° WSW 23:40:21 18° SSW 23:44:36 10° SSE daylight
19 May - 17:03:36 10° S 17:06:55 13° SSE 17:10:10 10° SE daylight
19 May - 18:54:07 10° SW 19:00:08 25° SSE 19:05:55 10° ESE daylight
19 May - 20:47:14 10° WSW 20:53:30 30° S 20:59:29 10° SE daylight
19 May - 22:41:33 10° WSW 22:46:43 21° SSW 22:51:41 10° SSE daylight
20 May - 18:00:36 10° SSW 18:06:21 23° SSE 18:11:56 10° ESE daylight
20 May - 19:53:18 10° WSW 19:59:44 30° S 20:05:52 10° ESE daylight
20 May - 21:47:18 10° WSW 21:53:03 25° SSW 21:58:32 10° SE daylight
20 May - 23:43:40 10° SW 23:46:01 12° SSW 23:48:19 10° S daylight
21 May - 17:07:18 10° SSW 17:12:35 20° SSE 17:17:45 10° ESE daylight
21 May - 18:59:27 10° SW 19:05:56 30° S 19:12:10 10° ESE daylight
21 May - 20:53:09 10° WSW 20:59:20 28° S 21:05:13 10° SE daylight
21 May - 22:48:23 10° WSW 22:52:26 16° SSW 22:56:21 10° S daylight
22 May - 16:14:19 10° SSW 16:18:49 16° SSE 16:23:17 10° ESE daylight
22 May - 18:05:43 10° SW 18:12:07 28° S 18:18:20 10° ESE daylight
22 May - 19:59:06 10° WSW 20:05:33 30° S 20:11:44 10° SE daylight
22 May - 21:53:44 10° WSW 21:58:47 20° SSW 22:03:38 10° SSE daylight
23 May - 15:21:55 10° S 15:25:05 13° SSE 15:28:14 10° SE daylight
23 May - 17:12:06 10° SW 17:18:18 26° SSE 17:24:22 10° ESE daylight
23 May - 19:05:07 10° WSW 19:11:45 31° S 19:18:08 10° ESE daylight
23 May - 20:59:21 10° WSW 21:05:05 24° SSW 21:10:36 10° SSE daylight
24 May - 16:18:41 10° SSW 16:24:29 23° SSE 16:30:15 10° ESE daylight
24 May - 18:11:14 10° SW 18:17:55 31° S 18:24:24 10° ESE daylight
24 May - 20:05:08 10° WSW 20:11:20 27° SSW 20:17:19 10° SE daylight
24 May - 22:00:58 10° SW 22:04:26 14° SSW 22:07:49 10° S daylight
25 May - 15:25:30 10° SSW 15:30:42 19° SSE 15:35:55 10° ESE daylight
25 May - 17:17:26 10° SW 17:24:04 30° S 17:30:35 10° ESE daylight
25 May - 19:11:01 10° WSW 19:17:33 30° S 19:23:51 10° SE daylight
25 May - 21:06:01 10° WSW 21:10:46 18° SSW 21:15:23 10° SSE daylight
26 May - 14:32:43 10° S 14:36:58 16° SSE 14:41:14 10° ESE daylight
26 May - 16:23:47 10° SW 16:30:13 28° S 16:36:38 10° ESE daylight
26 May - 18:17:00 10° WSW 18:23:43 32° S 18:30:16 10° SE daylight
26 May - 20:11:29 10° WSW 20:17:04 22° SSW 20:22:28 10° SSE daylight
27 May - 13:40:44 10° S 13:43:15 12° SSE 13:45:47 10° SE daylight
27 May - 15:30:17 10° SW 15:36:24 25° SSE 15:42:32 10° ESE daylight
27 May - 17:23:05 10° WSW 17:29:51 32° S 17:36:32 10° ESE daylight
27 May - 19:17:10 10° WSW 19:23:18 25° SSW 19:29:16 10° SE daylight
27 May - 21:13:57 10° SW 21:16:22 12° SSW 21:18:46 10° S daylight
